National Weather Service United States Department of Commerce

Latest Hourly Weather Roundup

TOPSWRTT 000
TTAA00 KICT 181203

Wichita AWIPS Roundup
National Weather Service Wichita KS
600 AM CST THU JAN 18 2018

....Central Kansas....
  
CITY           SKY/WX    TMP DP  RH WIND       PRES   REMARKS
RUSSELL        CLEAR     19  11  70 S13       30.15F WCI   6          
6HR MIN TEMP:  16; 6HR MAX TEMP:  22;                                

SALINA         CLOUDY    17   8  67 S6        30.23F WCI   9          
6HR MIN TEMP:  17; 6HR MAX TEMP:  23;                                

GREAT BEND     CLOUDY    17   7  64 S9        30.19F WCI   6          
6HR MIN TEMP:  17; 6HR MAX TEMP:  22;                                

ELLSWORTH      CLEAR     19   7  58 S5        30.20F WCI  13          
MCPHERSON      CLEAR     18   9  68 S6        30.24S WCI   9          
HAYS           CLOUDY    13   8  81 SW3       30.17S                  
6HR MIN TEMP:  13; 6HR MAX TEMP:  19;                                


....South Central Kansas....
  
CITY           SKY/WX    TMP DP  RH WIND       PRES   REMARKS
HUTCHINSON     CLOUDY    18   6  59 S7        30.24F WCI   9          
6HR MIN TEMP:  17; 6HR MAX TEMP:  21;                                

NEWTON         CLOUDY    19   8  62 SW16      30.25F WCI   4          
6HR MIN TEMP:  19; 6HR MAX TEMP:  22;                                

KINGMAN        CLEAR     21   5  49 S10       30.24F WCI  10          
WICHITA (ICT)  CLOUDY    17   7  64 S9        30.28F WCI   6          
6HR MIN TEMP:  16; 6HR MAX TEMP:  20;                                

JABARA ARPT    CLOUDY    20   7  57 S14       30.27F WCI   7          
6HR MIN TEMP:  20; 6HR MAX TEMP:  23;                                

BEECH ARPT     FAIR      20   6  53 S12       30.28S WCI   8          
6HR MIN TEMP:  20; 6HR MAX TEMP:  23;                                

MCCONNELL AFB  CLOUDY    19   5  54 SW13      30.28F WCI   6          
6HR MIN TEMP:  19; 6HR MAX TEMP:  21;                                

BENTON         FAIR      20   6  54 S12       30.29F WCI   8          
6HR MIN TEMP:  19; 6HR MAX TEMP:  22;                                

EL DORADO      FAIR      23  10  58 CALM      30.28F                  
AUGUSTA        FAIR      19   9  63 S9        30.30S WCI   9          
HARPER           N/A     18   1  49 MISG      30.29F                  
WELLINGTON     CLEAR     19   7  58 S9        30.31S WCI   9          
WINFIELD       CLOUDY    20   7  57 S9        30.33F WCI   9          
6HR MIN TEMP:  16; 6HR MAX TEMP:  20;                                

 
....Southeast Kansas....
  
CITY           SKY/WX    TMP DP  RH WIND       PRES   REMARKS
EUREKA         NOT AVBL                                               
IOLA             N/A     19   9  66 S12G18    30.36S WCI   6          
6HR MIN TEMP:  15; 6HR MAX TEMP:  19;                                

CHANUTE          N/A    N/A N/A N/A MISG      30.35F                  
PARSONS        CLOUDY    16   8  71 S9        30.39F WCI   4          
6HR MIN TEMP:  15; 6HR MAX TEMP:  16;                                

COFFEYVILLE    CLEAR     18   9  68 S9        30.40F WCI   7          
6HR MIN TEMP:  13; 6HR MAX TEMP:  18;                                

INDEPENDENCE   CLOUDY    17   8  66 S13       30.39F WCI   4          
6HR MIN TEMP:  15; 6HR MAX TEMP:  18;                                

FORT SCOTT     CLEAR     19   9  63 S13G22    30.35S WCI   7          
PITTSBURG        N/A     18  10  68 S10       30.38F WCI   7          

....Western Kansas....
  
CITY           SKY/WX    TMP DP  RH WIND       PRES   REMARKS
GOODLAND       CLEAR     23  11  60 SW7       30.10F WCI  15          
6HR MIN TEMP:  21; 6HR MAX TEMP:  23;                                

HILL CITY      CLOUDY    16  11  80 W8        30.13F WCI   5          
6HR MIN TEMP:  15; 6HR MAX TEMP:  19;                                

LIBERAL        CLOUDY    12   6  77 W7        30.20F WCI   1          
6HR MIN TEMP:  12; 6HR MAX TEMP:  21;                                

GARDEN CITY    CLOUDY    12   5  73 W8        30.15F WCI   0          
6HR MIN TEMP:  11; 6HR MAX TEMP:  20;                                

DODGE CITY     CLOUDY    18   8  65 SW13      30.18F WCI   5          
6HR MIN TEMP:  17; 6HR MAX TEMP:  26;                                

PRATT          CLOUDY    19   3  49 SW13      30.21F WCI   6          
6HR MIN TEMP:  18; 6HR MAX TEMP:  21;                                

MEDICINE LODGE   N/A     18   3  52 S5        30.26F WCI  11          
6HR MIN TEMP:  17; 6HR MAX TEMP:  20;                                


....Northeast Kansas....
  
CITY           SKY/WX    TMP DP  RH WIND       PRES   REMARKS
CONCORDIA      CLOUDY    19   9  65 S13       30.15F WCI   6          
6HR MIN TEMP:  17; 6HR MAX TEMP:  21;                                

TOPEKA         CLOUDY    19   9  65 CALM      30.27F                  
6HR MIN TEMP:  15; 6HR MAX TEMP:  21;                                

MANHATTAN      CLOUDY    18   8  65 CALM      30.26S                  
6HR MIN TEMP:  18; 6HR MAX TEMP:  23;                                

LAWRENCE       CLOUDY    20   8  60 S3        30.28F                  
6HR MIN TEMP:  15; 6HR MAX TEMP:  21;                                

OLATHE         CLOUDY    18   7  62 S12       30.28F WCI   5          
6HR MIN TEMP:  13; 6HR MAX TEMP:  18;                                

EMPORIA        CLOUDY    21   9  59 S8        30.27F WCI  11          
6HR MIN TEMP:  14; 6HR MAX TEMP:  21;                                


....Oklahoma....
  
CITY           SKY/WX    TMP DP  RH WIND       PRES   REMARKS
GAGE           CLOUDY    22   4  46 S9        30.27F WCI  12          
6HR MIN TEMP:  20; 6HR MAX TEMP:  26;                                

PONCA CITY     CLOUDY    21   4  47 S6        30.38F WCI  13          
6HR MIN TEMP:  21; 6HR MAX TEMP:  24;                                

BARTLESVILLE   CLOUDY    14   6  70 S7        30.43F WCI   4          
6HR MIN TEMP:   8; 6HR MAX TEMP:  17;                                

TULSA          CLOUDY    22   7  52 S10       30.43F WCI  11          
6HR MIN TEMP:  18; 6HR MAX TEMP:  24;                                

OKLAHOMA CITY  CLOUDY    15   6  67 S9        30.40F WCI   3          
6HR MIN TEMP:  15; 6HR MAX TEMP:  21;                                


Note: "fair" indicates few or no clouds below 12,000 feet with no
significant weather and/or obstructions to visibility.